Wind_Speed
34 34 31 31 32 30 27 27 27 26 24 23 22 19 19 20 20 19 16 15 15 16 16 17 15 14 13 12 12 10 12 11 3 3 4 13 16 22 17 15 13 15 14
27 28 29 29 28 27 26 27 26 25 23 23 22 21 20 22 23 19 15 16 16 18 19 18 16 14 13 11 10 12 13 13 7 7 14 10 15 19 14 18 14 14 14
28 28 26 26 26 27 29 27 27 26 24 23 24 24 23 23 22 16 15 14 16 18 19 19 18 15 13 9 10 13 11 13 12 17 9 10 15 18 18 16 14 13 13
31 29 26 27 29 31 32 31 31 29 27 26 25 25 23 20 16 14 14 14 14 16 19 20 19 17 16 11 11 14 12 15 19 19 15 14 17 18 21 21 17 16 17
29 28 27 30 31 31 31 31 29 31 30 29 23 21 17 15 15 16 14 11 10 11 12 15 15 14 15 13 13 17 18 21 20 17 12 12 13 16 18 16 18 19 15
27 27 27 28 31 33 34 33 31 28 28 25 21 21 20 16 13 11 9 9 8 10 13 13 12 11 11 14 14 19 21 28 20 16 13 14 12 16 19 24 22 14 4
28 28 28 30 28 33 33 32 29 26 25 26 26 22 17 14 13 10 7 9 11 11 10 11 11 8 8 10 17 18 21 24 28 32 23 20 18 24 25 23 16 14 7
30 28 29 30 27 29 32 29 26 27 30 29 24 18 16 14 13 11 10 10 11 10 10 10 10 9 8 16 19 21 20 21 24 26 27 27 24 24 26 26 23 19 17
28 27 27 28 26 29 26 26 29 32 30 25 20 17 16 16 13 13 12 15 14 12 10 12 12 11 12 17 21 23 20 16 13 15 18 21 20 23 26 28 24 22 7
26 27 30 29 28 29 28 31 31 28 26 23 18 15 15 16 13 13 13 15 13 12 11 13 13 9 14 18 24 26 22 17 14 16 19 18 18 23 24 26 29 19 12
30 32 32 29 30 32 30 32 31 28 24 22 19 16 14 13 14 13 12 14 15 14 13 14 14 9 15 18 20 21 20 19 18 20 20 21 21 22 23 23 27 28 18
30 28 32 31 28 30 32 29 29 28 27 23 21 17 13 12 12 11 11 11 14 16 15 15 15 13 17 16 18 15 19 19 20 20 20 20 22 21 21 20 23 23 19
26 25 26 29 30 29 29 29 27 28 23 16 14 13 14 12 11 10 11 13 13 15 15 15 15 16 17 14 16 20 20 21 22 19 16 15 19 21 18 17 17 18 15
25 24 27 29 25 25 29 29 28 24 20 16 14 12 13 14 13 13 15 14 13 16 17 18 18 18 17 20 23 21 19 20 23 20 17 18 18 18 18 18 18 18 18
23 23 23 25 28 24 23 22 25 25 28 23 20 19 19 16 15 14 17 17 17 21 22 21 20 23 23 20 18 16 16 17 19 22 20 19 19 19 19 17 16 16 14
21 22 26 25 24 23 22 16 17 19 19 21 20 20 16 16 15 13 14 15 19 24 21 20 18 16 17 16 14 14 14 15 16 19 20 20 19 18 17 16 15 18 19
24 20 20 23 22 22 19 20 16 12 16 15 18 16 18 19 14 13 16 22 23 21 18 16 17 19 17 16 15 14 12 12 13 17 19 20 19 18 17 17 17 16 16
26 27 26 24 23 22 21 19 20 19 17 18 19 20 19 19 16 19 22 21 17 15 18 18 18 17 14 14 13 11 11 11 14 15 16 17 18 18 16 13 16 17 17
29 23 25 23 22 23 22 22 23 21 20 23 22 21 20 21 19 23 20 17 16 16 16 18 17 14 10 10 11 12 14 12 14 15 16 16 16 18 18 18 16 17 18
28 26 26 25 24 22 21 22 21 21 20 19 20 24 24 24 24 23 12 9 13 14 15 17 14 11 10 7 9 11 14 14 14 13 14 16 15 16 18 17 17 17 19
25 26 25 26 26 23 19 20 21 21 19 17 20 25 25 26 24 18 6 7 10 11 13 14 12 10 11 6 5 12 12 14 14 14 15 15 16 17 18 19 21 23 25
23 25 25 24 26 22 19 19 19 17 18 18 18 21 18 17 14 8 6 9 11 12 9 12 12 11 10 8 6 9 11 10 11 12 13 15 17 19 20 21 23 24 24
22 21 23 24 26 27 24 25 22 21 20 19 22 19 12 13 12 11 13 13 15 17 16 14 13 11 8 7 7 7 9 9 8 7 8 10 14 17 19 21 19 17 12
23 23 25 24 26 24 25 23 24 26 24 23 19 17 19 18 17 17 18 18 18 18 17 17 16 15 15 14 11 8 6 6 7 6 5 9 13 13 14 15 12 10 11
28 26 25 31 26 27 26 26 25 26 25 23 24 23 23 22 21 21 22 23 25 26 26 25 24 23 22 21 21 19 14 11 11 11 11 12 15 15 14 16 16 15 15
32 27 28 33 32 29 29 28 28 28 26 27 27 27 27 28 27 28 29 31 32 31 31 30 28 25 24 24 20 15 14 12 13 12 15 16 17 19 19 20 20 18 17
Wind_Direction
212 212 208 206 196 194 193 193 193 187 187 190 192 186 181 183 182 179 182 187 198 207 205 200 204 209 205 205 210 206 205 201 152 150 174 173 169 186 196 187 188 185 190
199 190 182 180 183 184 186 186 182 179 180 180 179 177 178 177 179 178 187 200 206 203 204 206 214 207 202 204 216 211 202 203 181 132 139 147 154 183 181 181 165 176 179
174 172 175 180 182 181 181 175 169 166 169 173 175 171 168 179 179 186 193 202 206 212 215 215 215 202 205 212 214 205 196 197 190 155 136 132 136 151 143 142 144 155 158
163 165 165 167 172 172 171 167 166 166 163 161 164 166 177 176 189 192 193 206 216 225 225 221 210 205 211 222 215 197 184 173 166 139 123 119 124 136 141 143 136 136 143
146 149 153 160 164 162 163 164 159 153 157 163 169 166 175 181 186 191 196 204 214 217 211 203 199 207 220 224 216 186 172 158 148 150 137 132 134 137 144 150 134 145 146
136 135 140 140 140 138 141 143 148 156 155 152 153 155 156 168 168 174 191 195 185 173 171 180 195 205 218 224 218 194 188 168 156 156 166 153 154 155 155 156 147 141 107
130 134 138 133 132 139 147 147 145 144 149 151 154 158 155 158 157 164 166 165 166 177 180 180 184 202 201 181 176 188 191 194 192 180 163 167 165 175 167 159 158 147 124
131 136 138 139 139 142 147 146 147 153 155 156 155 154 150 144 149 147 145 142 145 147 158 175 178 157 167 161 165 170 179 187 189 192 191 184 182 179 177 165 161 153 154
131 136 143 146 143 142 144 146 150 150 154 154 150 149 149 144 149 152 146 147 138 131 143 153 152 141 151 159 153 151 152 160 179 201 204 191 185 182 178 168 156 143 138
134 144 145 145 144 147 149 147 152 156 152 144 142 147 148 143 150 156 162 160 149 146 140 147 144 155 161 164 154 150 145 151 159 167 169 171 184 183 186 188 175 155 141
143 142 147 154 153 155 150 152 150 149 144 140 135 135 141 145 146 167 174 173 167 158 160 152 154 171 164 166 162 159 152 151 155 160 163 166 172 174 181 188 186 184 166
143 147 152 155 151 151 152 151 152 149 140 135 127 128 137 142 154 167 180 180 170 161 160 158 157 170 166 165 167 160 153 153 158 158 157 161 167 169 181 186 190 184 179
141 144 145 150 153 157 152 151 144 146 135 137 137 137 143 154 158 160 164 162 168 164 155 150 152 159 161 165 167 161 160 158 157 152 153 159 168 179 178 173 181 186 176
143 141 144 145 151 156 157 159 152 149 144 148 151 149 149 160 161 160 163 157 160 155 147 145 151 155 160 150 149 158 165 167 164 160 159 171 175 170 172 174 172 183 200
136 137 138 146 153 145 146 152 161 168 173 167 173 160 157 163 168 168 172 173 163 157 147 143 140 138 136 145 158 164 167 168 167 172 174 176 176 176 175 177 184 186 197
137 138 149 147 148 148 147 136 157 170 182 187 180 174 166 159 158 164 173 173 160 156 144 138 136 140 142 154 158 160 168 172 175 176 179 181 179 184 186 187 192 200 211
146 143 142 146 147 149 148 142 121 125 158 170 173 163 152 153 153 144 146 149 153 155 141 145 147 157 161 166 168 168 170 180 179 182 184 184 189 192 195 199 202 209 222
149 148 148 149 148 147 140 134 133 132 128 133 146 149 155 152 147 143 145 147 148 160 155 153 160 169 176 177 178 181 181 182 188 191 191 195 200 201 202 206 208 214 221
151 147 149 145 145 144 137 126 124 120 123 133 140 145 149 148 149 149 151 157 160 166 168 169 172 174 165 174 181 182 182 186 186 190 192 196 204 205 207 208 217 229 236
161 157 152 149 147 144 136 126 119 123 127 132 138 146 149 149 155 162 151 158 171 179 177 179 185 186 181 168 178 180 183 184 184 189 194 196 201 206 217 230 237 243 249
166 163 157 153 148 150 144 139 135 139 140 139 148 158 162 163 166 167 127 45 182 178 182 190 193 196 195 216 245 215 217 213 214 215 217 218 223 225 233 242 251 259 268
159 162 158 143 140 145 144 137 134 135 136 136 146 156 162 165 163 137 92 95 111 155 148 162 169 177 207 229 232 214 215 219 230 238 243 245 244 247 251 257 262 268 273
151 141 140 141 147 144 137 136 131 128 130 133 143 146 154 147 135 129 112 114 114 127 139 140 132 134 133 132 155 170 195 207 222 243 256 261 253 252 256 265 273 282 283
131 134 125 133 136 131 135 130 127 131 132 134 131 122 135 132 128 120 115 113 117 117 119 120 113 106 102 99 98 109 120 115 122 98 97 108 113 94 108 115 101 80 50
121 120 107 114 109 114 119 120 121 120 115 109 107 107 113 121 119 116 113 113 113 110 105 103 101 99 94 91 89 88 94 104 101 105 105 102 94 85 79 79 73 67 58
115 105 108 112 107 106 108 107 107 107 104 104 103 104 107 108 110 113 112 110 109 106 105 103 101 99 96 91 85 84 83 85 88 87 90 94 97 93 88 82 78 72 60
Height
628 633 639 645 652 658 661 666 672 679 684 689 694 699 703 707 712 716 719 723 726 729 732 734 736 738 740 742 744 744 746 748 751 753 754 756 757 759 763 766 770 772 775
621 629 636 642 648 653 658 664 670 676 682 688 694 698 702 707 712 715 719 722 724 727 729 731 734 736 738 740 741 742 743 747 748 750 755 757 759 764 766 768 770 773 776
618 626 635 641 646 652 657 663 669 676 682 689 693 697 701 706 710 713 716 719 722 724 726 728 731 733 735 738 739 741 743 745 747 748 755 758 760 764 767 769 772 775 777
618 626 632 639 646 650 655 662 668 675 682 687 693 697 701 706 709 712 715 718 720 721 723 726 728 730 733 735 737 739 742 744 747 750 755 758 760 764 766 770 775 777 779
616 625 633 639 645 652 657 663 668 676 682 688 694 698 701 705 708 711 714 716 717 718 720 723 726 728 730 733 735 737 740 743 747 751 755 759 761 764 768 772 775 779 783
616 623 634 642 644 652 657 664 671 677 684 688 693 697 702 705 708 711 713 714 716 718 720 723 725 726 728 729 732 735 737 740 746 751 756 758 761 764 768 773 776 780 785
616 626 636 642 647 655 661 666 673 678 684 690 694 698 701 705 708 710 712 714 716 718 720 722 724 725 726 726 730 734 737 740 742 745 751 756 759 762 766 772 777 780 784
619 630 638 644 651 658 663 668 674 680 685 691 695 698 702 706 709 711 713 714 717 719 721 722 723 724 725 726 729 733 738 741 744 747 750 753 757 763 767 772 777 782 788
623 634 643 648 654 658 664 670 675 681 687 692 695 699 703 706 709 711 713 716 718 720 721 722 724 725 727 728 730 735 739 743 747 750 752 756 760 763 767 772 778 783 789
628 638 644 649 655 660 666 672 678 682 688 693 697 701 704 707 710 712 715 717 719 721 723 724 726 728 730 731 732 736 740 744 746 750 753 758 761 764 768 772 776 781 787
633 639 645 651 657 662 668 673 678 683 688 694 698 702 706 708 711 714 716 718 719 721 724 725 728 731 733 735 736 739 741 745 749 752 756 759 763 767 770 774 778 781 786
635 642 647 652 657 664 669 675 679 684 689 695 699 704 708 710 712 715 717 718 720 722 724 726 729 732 734 737 739 741 744 748 751 755 759 762 765 769 772 776 780 784 788
638 645 649 653 659 666 670 675 680 684 690 696 700 705 708 711 713 715 717 719 721 723 725 728 730 734 737 740 742 744 747 750 753 757 760 763 767 770 774 778 782 785 789
641 646 651 656 662 667 671 675 678 683 689 695 700 704 708 711 713 715 718 720 722 725 727 730 732 735 738 740 745 748 750 752 754 758 761 764 768 772 775 778 782 786 789
643 648 653 659 664 669 672 675 678 682 686 692 697 701 706 710 713 715 717 720 722 725 728 731 733 737 741 744 747 749 752 754 757 759 763 766 769 772 775 778 781 784 786
647 650 655 660 665 668 671 675 679 684 689 693 697 701 706 710 713 716 718 720 724 727 730 733 737 740 743 747 749 751 753 756 758 761 764 767 770 773 776 778 781 783 784
646 652 657 661 665 668 672 674 679 687 691 696 701 705 709 711 715 717 719 722 726 729 732 736 739 743 746 748 751 753 755 757 759 762 765 768 771 774 776 778 779 782 784
646 650 657 662 665 669 672 676 680 686 693 699 704 708 712 715 718 720 724 727 730 733 735 738 741 744 746 749 752 754 756 758 760 762 765 768 771 773 776 778 779 780 782
649 655 658 662 667 671 676 680 684 689 696 701 707 712 716 719 722 725 728 730 731 734 736 740 742 745 748 750 752 754 756 758 760 762 765 768 770 772 774 776 778 780 781
649 653 658 663 669 676 680 683 688 694 700 705 709 713 717 721 724 727 730 733 734 736 738 740 744 747 750 752 753 754 756 758 759 761 764 766 769 771 773 775 776 776 776
649 655 659 665 672 678 682 686 691 697 703 708 712 715 719 721 725 730 733 733 735 737 739 742 746 749 751 752 752 754 756 758 759 761 763 765 767 768 769 770 771 771 771
649 656 660 666 674 680 686 691 696 701 706 711 715 719 724 727 730 733 734 734 735 738 741 743 746 748 750 751 752 752 755 757 759 760 762 763 765 765 766 767 767 767 767
652 659 664 670 676 683 689 694 699 703 708 713 718 722 727 730 732 734 735 736 737 738 741 743 746 748 749 751 751 752 754 756 758 758 759 759 760 761 761 762 763 763 762
655 662 666 672 678 684 690 696 701 705 711 716 721 724 727 731 733 736 737 739 740 741 744 746 748 750 751 751 752 753 754 755 756 757 758 757 758 758 760 759 760 762 762
659 666 670 674 682 687 694 699 705 710 715 720 724 727 731 734 737 740 742 743 745 747 749 751 753 754 755 755 756 756 757 757 757 758 757 758 760 761 765 764 763 763 764
663 671 675 678 684 691 696 702 708 713 719 723 728 731 735 738 742 745 747 749 750 752 753 755 756 758 759 758 759 760 760 761 761 761 761 761 761 761 762 761 763 766 768